This demonstration page uses our WeatherBlox Daily Observations layout. Learn more.

Left ArrowRight Arrow

38.20091, -84.87328

Hourly Observations for February 11, 2018

Temp ( °F °C ) Dew Point ( °F °C ) Humidity (%) Winds ( mph kmh ) Pressure ( in mb ) Visibility ( mi km ) Precip ( " mm )
12:09 am 00:09 Cloudy with Mist and Fog 39 3.9 36 2.2 89 89 NE 5 7 29.94 1014 3 5 0.00 0.00
12:53 am 00:53 Cloudy with Light Rain 39 3.9 36 2.2 89 89 N 7 11 29.91 1013 3 5 0.01 0.25
1:42 am 01:42 Cloudy with Mist and Fog 39 3.9 36 2.2 89 89 NNE 3 6 29.91 1013 4 6 0.01 0.25
1:53 am 01:53 Cloudy with Mist and Fog 39 3.9 36 2.2 89 89 E 5 7 29.89 1012 4 6 0.01 0.25
2:03 am 02:03 Cloudy with Mist and Fog 39 3.9 36 2.2 89 89 E 8 13 29.91 1013 4 6 0.00 0.00
2:40 am 02:40 Cloudy with Mist and Fog 40 4.4 37 2.8 89 89 ENE 6 9 29.88 1012 4 6 0.00 0.00
2:53 am 02:53 Cloudy with Mist and Fog 40 4.4 37 2.8 89 89 NNE 5 7 29.85 1011 5 8 0.00 0.00
3:34 am 03:34 Cloudy with Light Rain 40 4.4 37 2.8 89 89 ENE 6 9 29.85 1011 4 6 0.00 0.03
3:50 am 03:50 Cloudy with Light Rain 39 4 37 3 93 93 E 5 7 29.85 1011 4 6 0.01 0.25
3:53 am 03:53 Cloudy with Light Rain 40 4.4 37 2.8 89 89 ENE 3 6 29.83 1010 4 6 0.01 0.25
4:31 am 04:31 Cloudy with Light Rain 40 4.4 37 2.8 89 89 ESE 7 11 29.83 1010 3 5 0.03 0.76
4:53 am 04:53 Cloudy with Light Rain 41 5 38 3.3 89 89 Calm 29.81 1010 3 5 0.05 1.27
5:34 am 05:34 Cloudy with Rain 41 5 38 3.3 89 89 ENE 3 6 29.83 1010 3 4 0.05 1.27
5:53 am 05:53 Cloudy with Light Rain 41 5 39 3.9 93 93 E 5 7 29.78 1008 3 5 0.06 1.52
6:53 am 06:53 Cloudy with Mist and Fog 42 5.6 39 3.9 89 89 SE 5 7 29.79 1009 3 4 0.00 0.03
7:12 am 07:12 Cloudy with Mist and Fog 42 5.6 40 4.4 92 92 Calm 29.83 1010 2 3 0.00 0.00
7:53 am 07:53 Cloudy with Mist and Fog 43 6.1 41 5 93 93 Calm 29.79 1009 1 2 0.00 0.00
8:01 am 08:01 Cloudy with Mist and Fog 43 6.1 41 5 93 93 Calm 29.83 1010 1 1 0.00 0.00
8:14 am 08:14 Cloudy with Mist and Fog 43 6.1 41 5 93 93 Calm 29.83 1010 1 2 0.00 0.00
8:22 am 08:22 Cloudy with Mist and Fog 44 6.7 41 5 89 89 Calm 29.83 1010 1 2 0.00 0.00
8:53 am 08:53 Cloudy with Mist and Fog 45 7.2 42 5.6 90 90 Calm 29.80 1009 1 2 0.00 0.00
9:02 am 09:02 Cloudy with Light Rain 45 7.2 42 5.6 90 90 Calm 29.83 1010 1 1 0.00 0.03
9:22 am 09:22 Cloudy with Rain 46 7.8 43 6.1 89 89 Calm 29.80 1009 1 2 0.04 1.02
9:36 am 09:36 Cloudy with Light Rain 47 8.3 44 6.7 90 90 Calm 29.80 1009 2 3 0.05 1.27
9:50 am 09:50 Cloudy with Light Rain 46 8 45 7 93 93 Calm 29.80 1009 2 3 0.06 1.52
9:53 am 09:53 Cloudy with Light Rain 47 8.3 44 6.7 90 90 Calm 29.79 1009 2 3 0.06 1.52
10:05 am 10:05 Cloudy with Light Rain 47 8.3 44 6.7 90 90 NNW 3 6 29.80 1009 1 2 0.01 0.25
10:35 am 10:35 Cloudy with Rain 47 8.3 43 6.1 86 86 WNW 15 24 29.80 1009 1 2 0.03 0.76
10:46 am 10:46 Cloudy with Heavy Rain 49 9.4 46 7.8 90 90 WNW 13 20 29.83 1010 1 2 0.08 2.03
10:53 am 10:53 Cloudy with Heavy Rain 49 9.4 46 7.8 90 90 WNW 8 13 29.82 1010 2 2 0.11 2.79
11:20 am 11:20 Cloudy with Rain 49 9.4 46 7.8 90 90 W 9 15 29.83 1010 3 4 0.15 3.81
11:27 am 11:27 Cloudy with Light Rain 49 9.4 46 7.8 90 90 W 14 22 29.83 1010 7 11 0.15 3.81
11:35 am 11:35 Cloudy with Light Rain 49 9.4 45 7.2 86 86 W 9 15 29.83 1010 3 4 0.16 4.06
11:43 am 11:43 Cloudy with Light Rain 49 9.4 45 7.2 86 86 W 9 15 29.83 1010 3 5 0.17 4.32
11:53 am 11:53 Cloudy with Light Rain 47 8.3 44 6.7 90 90 WNW 13 20 29.85 1011 3 5 0.17 4.32
12:11 pm 12:11 Cloudy 46 7.8 42 5.6 86 86 WNW 8 13 29.88 1012 10 16 0.01 0.25
12:53 pm 12:53 Cloudy 44 6.7 40 4.4 85 85 W 9 15 29.87 1012 10 16 0.01 0.25
1:53 pm 13:53 Cloudy 42 5.6 38 3.3 85 85 WNW 9 15 29.89 1012 10 16 0.00 0.00
2:53 pm 14:53 Cloudy 41 5 36 2.2 82 82 W 8 13 29.93 1014 10 16 0.00 0.00
3:07 pm 15:07 Cloudy 41 5 35 1.7 79 79 VRB 6 9 29.94 1014 10 16 0.00 0.00
3:30 pm 15:30 Cloudy 40 4.4 35 1.7 83 83 WNW 9 15 29.97 1015 10 16 0.00 0.00
3:53 pm 15:53 Cloudy 40 4.4 34 1.1 79 79 WNW 9 15 29.98 1015 10 16 0.00 0.00
4:53 pm 16:53 Cloudy 38 3.3 33 0.6 83 83 WNW 12 19 30.01 1016 9 14 0.00 0.00
5:12 pm 17:12 Cloudy with Haze 37 2.8 32 0 82 82 WNW 14 22 30.06 1018 6 10 0.00 0.00
5:53 pm 17:53 Cloudy with Haze 35 1.7 29 -1.7 78 78 WNW 9 15 30.07 1018 6 10 0.00 0.00
6:53 pm 18:53 Cloudy with Mist and Fog 33 0.6 29 -1.7 85 85 W 7 11 30.12 1020 5 8 0.00 0.00
7:53 pm 19:53 Cloudy 33 0.6 28 -2.2 82 82 NW 7 11 30.17 1022 8 13 0.00 0.00
8:53 pm 20:53 Cloudy 33 0.6 28 -2.2 82 82 NW 7 11 30.19 1022 8 13 0.00 0.00
9:32 pm 21:32 Cloudy 32 0 27 -2.8 82 82 WNW 6 9 30.27 1025 9 14 0.00 0.00
9:53 pm 21:53 Cloudy 33 0.6 27 -2.8 78 78 NNW 8 13 30.21 1023 10 16 0.00 0.00
10:21 pm 22:21 Cloudy 33 0.6 26 -3.3 75 75 NW 6 9 30.27 1025 10 16 0.00 0.00
10:30 pm 22:30 Cloudy 32 0 27 -2.8 82 82 N 3 6 30.27 1025 10 16 0.00 0.00
10:53 pm 22:53 Cloudy 32 0 26 -3.3 79 79 NNW 6 9 30.23 1024 10 16 0.00 0.00
11:46 pm 23:46 Cloudy 32 0 26 -3.3 79 79 N 7 11 30.30 1026 10 16 0.00 0.00
11:53 pm 23:53 Cloudy 32 0 25 -3.9 75 75 undefined N/A 30.27 1025 10 16 0.00 0.00

Powered by AerisWeather